Atchison, KS (66002)

8:02 AM CST on February 13, 2016 (GMT -0600)
Shannon Township | | Change Station
CLOSE
Current Station
Personal Weather Station
Location: Atchison, KS
Elevation: 942 ft
Nearby Weather Stations

Elev 942 ft 39.56 °N, 95.16 °W | Updated 2 minutes ago

Overcast
Overcast
16.2 °F
Feels Like 16 °F
N
2.0
Wind Variable Wind from East
Gusts 3.0 mph

Today
High -- | Low -- °F
--% Chance of Precip.
Yesterday
High -- | Low -- °F
Precip. -- in
Pressure 30.66 in
Visibility 10.0 miles
Clouds Overcast 8000 ft
Windchill 16 °F
Dew Point 3 °F
Humidity 55%
Rainfall 0.00 in
Snow Depth Not available.
7:15 AM 5:54 PM
Waxing Crescent, 31% visible
METAR KSTJ 131353Z AUTO 09007KT 10SM OVC080 M10/M17 A3062 RMK AO2 SLP382 T11001167
Pressure 30.66 in
Visibility 10.0 miles
Clouds Overcast 8000 ft
Windchill 16 °F
Dew Point 3 °F
Humidity 55%
Rainfall 0.00 in
Snow Depth Not available.
7:15 AM 5:54 PM
Waxing Crescent, 31% visible
METAR KSTJ 131353Z AUTO 09007KT 10SM OVC080 M10/M17 A3062 RMK AO2 SLP382 T11001167

10-Day Weather Forecast

Almanac

Astronomy

Feb. 13, 2016 Rise Set
Actual Time
Civil Twilight
Nautical Twilight
Astronomical Twilight
Moon
Length of Visible Light
Length of Day
Tomorrow will be .
, % of the Moon is Illuminated

Today's Extremes

State Highs State Lows

Community

WunderPhotos

Upload Photos

1,892,556 photos uploaded!

WunderBlog® & News

Nearby

Air Quality

  Air Quality AQ Index Pollutant
Not available.

Snow Depth

Station Depth Elevation

Earthquake Activity

City Distance Mag. Time & Date
Minimum magnitude displayed is 2.5.

Coastal Water Temperatures

Place Temperature

Stations

Nearby Weather Stations

Station Location Temp. Windchill Dew Point Humidity Wind Precip. Elev Updated Type
                   

Watches & Warnings

There are currently no watches in effect.